Погода в Поморянах

Украина / Львовская область     49°38′36″N   24°56′17″E
темп.,
°C
ветер,
м/с
пор.,
м/с
влажн.,
%
обл.,
%
осадки,
мм/ч
давл.,
гПа
погр.,
м
18 сентября, сб
сб1800:00+14сз71397100 3.1 1005579
03:00+14сз61397100 8.3 1006786
06:00+13зсз71295100 2.0 1006660
09:00+12з71296100 2.1 1007615
12:00+12зсз61192100 0.3 1008897
15:00+13з71087100 0.5 10091050
18:00+12зсз6109297 0.6 1009712
21:00+11з599592 0.9 1009521
19 сентября, вс
вс1900:00+11з5109449 0.3 1009644
03:00+9сз4697100 2.1 1009458
06:00+7зсз51095100 1.7 1010705
09:00+5зсз61095100 2.3 1011993
12:00+5з6994100 0.3 1011997
15:00+6зсз6992100 0.7 10121074
18:00+5зсз6894100 0.6 10121020
21:00+5зсз6994100 0.9 10121089
20 сентября, пн
пн2000:00+5зсз6996100 0.4 10131002
03:00+5зсз71096100 0.8 1013901
06:00+5зсз61097100 0.4 1013682
09:00+5зсз61097100 0.7 1014633
12:00+5сз6996100 0.1 1015694
15:00+6зсз5894100 0.1 1016819
18:00+5сз5894100 0.1 1017828
21:00+5сз4993100 0.1 1018632
21 сентября, вт
вт2100:00+4зсз5994100 0.1 1019621
03:00+4зсз51092100 0.1 1020700
06:00+4сз51092100 0.1 1020733
09:00+4сз61092100 0.2 1021701
12:00+5сз6985100 0.1 1023781
15:00+6сз6983100 0.2 1024929
18:00+6сз51083100 0.1 1024966
21:00+5сз3987100 0.1 1025714
22 сентября, ср
ср2200:00+5зсз3886100 0.0 1025563
03:00+5сз4887100 0.0 1025602
06:00+4зсз3993100 0.0 1025271
09:00+6зсз497899 0.0 1025364
12:00+9сз676299 0.1 10241539
15:00+9зсз586199 0.1 10231177
18:00+10сз585817 0.0 1021909
21:00+6зсз388084 0.1 1022224